Regional Weather Roundup
Issued by NWS

Home | Current Version | Previous Version | Graphics & Text | Print | Product List | Glossary On
Versions: 1 2 3 4 5 6 7 8 9 10 11 12 13 14 15 16 17 18 19 20 21 22 23 24 25 26 27 28 29 30 31 32 33 34 35 36 37 38 39 40 41 42 43 44 45 46 47 48 49 50
000
ASUS43 KIND 030509
RWRIN

WEATHER ROUNDUP FOR INDIANA
NATIONAL WEATHER SERVICE INDIANAPOLIS IN
100 AM EDT THU SEP 03 2015

NOTE: "FAIR" INDICATES FEW OR NO CLOUDS BELOW 12,000 FEET WITH NO
SIGNIFICANT WEATHER AND/OR OBSTRUCTIONS TO VISIBILITY.

* - STATION DOES NOT REPORT WEATHER SUCH AS PRECIPITATION OR FOG.

+ - STATION NOT QUALITY CONTROLLED BY THE NATIONAL WEATHER SERVICE.
    USE DATA WITH CAUTION...ESPECIALLY DEWPOINT AND RELATIVE
    HUMIDITY OBSERVATIONS.

INZ001>003-010>013-019-020-030600-
NORTHWEST INDIANA

CITY           SKY/WX    TMP DP  RH WIND       PRES   REMARKS
GARY /AIRPORT/ PTCLDY    73  68  83 CALM      29.98F
KNOX *+        MOCLDY    72  70  94 CALM      29.99S
LA PORTE +     PTCLDY   N/A N/A N/A CALM      30.00F
MICHIGAN CITY+ PTCLDY    72  70  94 CALM      29.99F
MONTICELLO +   PTCLDY    75  71  89 S3        30.00S
RENSSELAER +   PTCLDY    73  72  94 SW6       30.00S
VALPARAISO     PTCLDY    76  69  79 S3        30.00F

$$

LMZ046-743>745-030600-
SOUTHERN LAKE MICHIGAN

STATION/POSITION TIME  TEMP    WIND        PRES    WAVE
                       AIR SEA DIR/SP/G            HT
                 (UTC) (F)     (DEG/KT/KT) (MB)    (FT)
MICHIGAN CITY    0400   80     160/  9/ 10   N/A
5NW MICH CITY    0500   76 73  200/  4/  6   N/A     1

$$

INZ004-005-014>016-021>024-030600-
NORTH CENTRAL INDIANA

CITY           SKY/WX    TMP DP  RH WIND       PRES   REMARKS
GOSHEN         PTCLDY    72  68  87 CALM      30.00F
LOGANSPORT +   PTCLDY    70  64  83 S5        30.03S
PERU/GRISSOM   PTCLDY    73  68  86 S6        30.01F
ROCHESTER +    MOCLDY    77  70  78 SW5       30.02S
SOUTH BEND     PTCLDY    73  68  84 SW3       30.00F
WARSAW +       MOCLDY    70  68  94 CALM      30.01F

$$

INZ006>009-017-018-025>027-030600-
NORTHEAST INDIANA

CITY           SKY/WX    TMP DP  RH WIND       PRES   REMARKS
ANGOLA *+        N/A     72  63  73 CALM      30.01F VSB 3/4
AUBURN +       MOCLDY    72  68  88 CALM      30.02F
FORT WAYNE     MOCLDY    73  68  84 S3        30.02F
HUNTINGTON +   MOCLDY    72  67  82 CALM      30.02S

$$

INZ028-029-035-036-043>045-051>053-030600-
WEST CENTRAL INDIANA

CITY           SKY/WX    TMP DP  RH WIND       PRES   REMARKS
CRAWFORDSVL +  PTCLDY    65  65 100 CALM      30.03S
GREENCASTLE +  CLEAR     68  64  88 CALM      30.04S FOG
LAFAYETTE      CLEAR     71  68  90 CALM      30.01S
TERRE HAUTE    CLEAR     68  66  93 CALM      30.02S

$$

INZ030>032-037>040-046>048-054>057-064-065-030600-
CENTRAL INDIANA

CITY           SKY/WX    TMP DP  RH WIND       PRES   REMARKS
FRANKFORT +    PTCLDY   N/A N/A N/A CALM      30.05S
GREENWOOD *+   PTCLDY    68  64  88 CALM      30.04S
INDIANAPOLIS   CLEAR     73  68  84 SW3       30.03S
-EAGLE CREEK   CLEAR     73  70  90 CALM      30.03S
KOKOMO *+      PTCLDY    70  64  83 S6        30.03S
MARION +       PTCLDY    69  63  80 CALM      30.04S
MT COMFORT *+  PTCLDY    68 N/A N/A CALM      30.04S
SHELBYVILLE    PTCLDY    70  66  87 CALM      30.03S FOG
ZIONSVILLE +   CLEAR     67  63  89 CALM      30.05S FOG

$$

INZ033-034-041-042-049-050-058-059-030600-
EAST CENTRAL INDIANA

CITY           SKY/WX    TMP DP  RH WIND       PRES   REMARKS
MUNCIE         PTCLDY    70  66  87 S3        30.04S

$$

INZ060-061-067>069-081>083-085>088-030600-
SOUTHWEST INDIANA

CITY           SKY/WX    TMP DP  RH WIND       PRES   REMARKS
EVANSVILLE     CLEAR     74  69  85 CALM      30.03S
HUNTINGBURG *+ CLEAR     70  66  88 CALM      30.03S
WASHINGTON +   CLEAR     68  65  88 CALM      30.02S

$$

INZ062-063-066-070>080-084-089>092-030600-
SOUTH CENTRAL AND SOUTHEAST INDIANA

CITY           SKY/WX    TMP DP  RH WIND       PRES   REMARKS
BLOOMINGTON    CLEAR     68  66  93 CALM      30.04S FOG
NORTH VERNON + CLEAR     72  72 100 CALM      30.05S FOG
SEYMOUR +      CLEAR     70  68  94 CALM      30.03S FOG

$$



USA.gov is the U.S. government's official web portal to all federal, state and local government web resources and services.